クリステンセン彗星

287P/Christensen (2023)

English version
Home page
Updated on September 11, 2022

---------------------------------------------------------------------

・ プロフィール

・ 軌道要素

Epoch 2022 Aug. 9.0 TT = JDT 2459800.5
T 2023 July 5.03683 TT                                  Rudenko
q   3.0345263            (2000.0)            P               Q
n   0.11603704     Peri.  189.08890     +0.84507447     +0.50191401
a   4.1629860      Node   139.04096     -0.47117973     +0.86197551
e   0.2710698      Incl.   16.32026     -0.25266343     +0.07127792
P   8.49
From 229 observations 2006 Aug. 30-2022 May 29, mean residual 0".9.
     Nongravitational parameters A1 = -3.31, A2 = -0.5239.

・ 星図

・ 光度変化

        m1 = 0.5 + 5 logΔ + 30.0 log r

---------------------------------------------------------------------

軌道要素はM.P.E.C. 2022-L66に掲載されたものです。
星図はステラナビゲータ Ver.10 (アストロアーツ) で作成したものです。
光度グラフはComet for Windowsで作成したものです。

---------------------------------------------------------------------

Copyright(C) Seiichi Yoshida (comet@aerith.net). All rights reserved.